Location: Long Geng
(2.6167°N, 114.1333°E)
Time: 06:10:47
(UTC+00:00)

Tianhe-1 - Pass Details

Date: 14 May 2021
Orbit: 375 x 387 km, 41.5° (Epoch: 13 June)

Event Time Altitude Azimuth Distance (km) Brightness Sun altitude
Exits shadow 19:52:17 - 72° (ENE) 1,683 5.2 -33.6°
Enters shadow 20:57:57 -53° 311° (NW) 10,655 8.3 -18.4°
Maximum altitude 21:27:02 41° 224° (SW) 565 1.5 -11.6°
Drops below altitude 10° 21:30:03 10° 152° (SSE) 1,400 4.0 -10.9°
Sets 21:32:12 0° 144° (SE) 2,257 5.2 -10.4°
